Location: Eurasberg
(48.3353°N, 11.0839°E)
Time: 19:02:58
(UTC+00:00)

Cosmos 2251 Rocket - Pass Details

Date: 18 January 2026
Orbit: 762 x 787 km, 74.0° (Epoch: 13 February)

Event Time Altitude Azimuth Distance (km) Brightness Sun altitude
Rises 05:30:33 0° 187° (S) 3,264 6.9 -14.5°
Reaches altitude 10° 05:32:58 10° 183° (S) 2,338 6.2 -14.1°
Maximum altitude 05:38:09 56° 107° (ESE) 931 4.3 -13.2°
Drops below altitude 10° 05:43:21 10° 30° (NNE) 2,343 6.2 -12.4°
Sets 05:45:46 0° 27° (NNE) 3,271 6.9 -12.0°
